Погода в Глебове

Россия / Рязанская область     54°08′11″N   41°10′13″E
темп.,
°C
ветер,
м/с
пор.,
м/с
влажн.,
%
обл.,
%
осадки,
мм/ч
давл.,
гПа
погр.,
м
14 апреля, ср
ср1400:00+11юв4126147 0.0 1025222
03:00+9юв4116641 0.0 1024177
06:00+8юв497260 0.0 1024149
09:00+14ююв4851100 0.0 1023310
12:00+18юв573496 0.0 1022997
15:00+19юв5628100 0.0 10201424
18:00+17юв3442100 0.0 101961
21:00+13юв3956100 0.0 1019141
15 апреля, чт
чт1500:00+11юв3460100 0.0 101851
03:00+9юв3466100 0.0 101854
06:00+9юв346787 0.0 101863
09:00+14юв455135 0.0 1017298
12:00+19вюв453856 0.0 1016825
15:00+21вюв452961 0.0 10151989
18:00+18в364478 0.0 1015125
21:00+13в4105791 0.0 1016170
16 апреля, пт
пт1600:00+12в41162100 0.0 1016210
03:00+10в41268100 0.0 1017228
06:00+9всв51372100 0.3 1018331
09:00+12всв71274100 0.9 1018500
12:00+16в6860100 0.1 1019935
15:00+17всв6755100 0.1 10191279
18:00+15всв61064100 0.1 1019761
21:00+10всв71484100 0.9 1021455
17 апреля, сб
сб1700:00+9всв6148660 0.4 1021417
03:00+7всв61390100 0.4 1021368
06:00+7всв6138896 0.0 1022376
09:00+10всв7127157 0.1 1022547
12:00+15всв795867 0.0 10221060
15:00+16всв795384 0.0 10221529
18:00+13всв812585 0.0 1022838
21:00+10всв714564 0.0 1023568
18 апреля, вс
вс1800:00+7всв614565 0.0 1024455
03:00+5всв513655 0.0 1025398
06:00+4всв613690 0.0 1026388
09:00+9всв610510 0.0 1026818
12:00+12всв78403 0.0 10261545
15:00+13всв783681 0.0 10261879
18:00+11св694793 0.0 1027978
21:00+8св4106383 0.0 1028231